Regional Weather Roundup
Issued by NWS

Home | Current Version | Previous Version | Text Only | Print | Product List | Glossary On
Versions: 1 2 3 4 5 6 7 8 9 10 11 12 13 14 15 16 17 18 19 20 21 22 23 24 25 26 27 28 29 30 31 32 33 34 35 36 37 38 39 40 41 42 43 44 45 46 47 48 49 50
000
ASUS43 KDTX 180510
RWRMI
MICHIGAN HOURLY REGIONAL WEATHER ROUNDUP
NATIONAL WEATHER SERVICE DETROIT/PONTIAC MI
100 AM EDT THU SEP 18 2014

NOTE: "FAIR" INDICATES FEW OR NO CLOUDS BELOW 12,000 FEET WITH NO
SIGNIFICANT WEATHER AND/OR OBSTRUCTION TO VISIBILITY.

MIZ047>049-052>055-059>063-066>070-074>076-081>083-180600-
SOUTHEAST LOWER MICHIGAN

CITY           SKY/WX    TMP DP  RH WIND       PRES   REMARKS
ADRIAN         CLEAR     48  45  89 N5        30.04R
ALMA           CLEAR     46  45  97 CALM      30.04S
ANN ARBOR      CLEAR     43  41  93 CALM      30.03R FOG
BAD AXE        CLEAR     48  47  96 CALM      30.02S
CARO             N/A     44  43  99 CALM      30.02S
DETROIT CITY   CLEAR     54  46  74 CALM      30.02S
DETROIT        PTCLDY    53  46  77 NW3       30.03R
FLINT          CLEAR     47  44  90 CALM      30.04R
GROSSE ILE     CLEAR     50  46  87 NW3       30.01R
HILLSDALE      CLEAR     45  45  99 CALM      30.04S
HOWELL         CLEAR     46  45  96 CALM      30.03S

CITY           SKY/WX    TMP DP  RH WIND       PRES   REMARKS
JACKSON        CLEAR     45  43  93 CALM      30.04S
LAMBERTVILLE   CLEAR     46  45  93 CALM      30.03R FOG
LANSING        CLEAR     47  45  93 CALM      30.04S
LAPEER         FAIR      43  42  97 CALM      30.03S FOG
MASON            N/A     45  44  97 CALM      30.04S FOG
MONROE         CLEAR     46  45  93 CALM      30.01S
MT. CLEMENS    CLEAR     52  45  76 W3        30.01R
PONTIAC        CLEAR     50  45  83 NW3       30.02S
PORT HOPE        N/A     58  53  84 VRB3      30.00R
PORT HURON     FOG       43  43 100 CALM      30.01S VSB 1
TRI CITIES     CLEAR     50  46  86 W5        30.04R
TROY           CLEAR     56  47  71 NW6       30.04S
SAGINAW HB     CLEAR     50  46  87 W5        30.02S
$$
MIZ043>046-050>051-056>058-064>065-071>073-077>080-180600-
SOUTHWEST LOWER MICHIGAN

CITY           SKY/WX    TMP DP  RH WIND       PRES   REMARKS
BATTLE CREEK   CLEAR     48  44  86 CALM      30.04S
BENTON HARBOR  CLEAR     44  43  96 CALM      30.04R FOG
BIG RAPIDS     CLEAR     45  45 100 N3        30.04R
COLDWATER      CLEAR     47  46  97 CALM      30.04R
FREMONT          N/A     44  44  97 CALM      30.03S FOG
HOLLAND        CLEAR     47  44  90 CALM      30.04S
GRAND RAPIDS   CLEAR     48  44  86 CALM      30.04S
IONIA          FAIR      47  45  91 W3        30.03S
KALAMAZOO      FOG       45  42  89 CALM      30.04S VSB 3/4
LUDINGTON      MOCLDY    51  50  98 CALM      30.04R
MARSHALL       FOG       43  43  99 CALM      30.03S VSB 1/4
MOUNT PLEASANT CLEAR     45  44  97 CALM      30.03S FOG
MUSKEGON       CLEAR     50  46  86 MISG      30.04S
SOUTH HAVEN    CLEAR     46  45  97 CALM      30.04S
$$
MIZ016>042-180600-
NORTHERN LOWER MICHIGAN

CITY           SKY/WX    TMP DP  RH WIND       PRES   REMARKS
ALPENA         CLOUDY    50  46  86 N13       30.06R
BEAVER ISLAND  CLOUDY    46  41  81 N5        30.09S
BELLAIRE       CLOUDY    52  47  81 N3        30.06S
CADILLAC       PTCLDY    46  46 100 CALM      30.05R FOG
CHARLEVOIX     CLOUDY    51  44  77 NE8       30.10S
FRANKFORT      CLOUDY    55  46  73 NE5       30.06S
GAYLORD        CLOUDY    48  45  89 NE6       30.06R
GRAYLING       CLOUDY    46  46 100 CALM      30.06R
HARBOR SPRINGS MOCLDY    47  43  84 N6        30.07S
HOUGHTON LAKE  CLEAR     48  46  93 NE5       30.05R
MANISTEE       CLEAR     54  48  82 E8        30.05S
OSCODA         CLOUDY    52  49  91 N5        30.03R
PELLSTON       CLOUDY    46  43  89 CALM      30.09R
ROGERS CITY    CLOUDY    47  45  90 NE8       30.08R
TRAVERSE CITY  CLOUDY    54  45  71 N9        30.06R
$$
MIZ007>008-015-180600-
EASTERN UPPER MICHIGAN

CITY           SKY/WX    TMP DP  RH WIND       PRES   REMARKS
KINROSS        MOCLDY    43  37  81 N10       30.10R
MACKINAC ISLAN CLOUDY    46  40  77 NE10      30.09R
NEWBERRY       CLOUDY    42  36  81 N8        30.11R
S. S. MARIE    CLOUDY    42  34  73 NE5       30.11R
MUNISING         N/A     48  39  71 NE14      30.13R
$$
MIZ004>006-011>014-085-180600-
CENTRAL UPPER MICHIGAN

CITY           SKY/WX    TMP DP  RH WIND       PRES   REMARKS
MANISTIQUE     CLOUDY    41  37  84 N7        30.11S
ESCANABA       CLOUDY    43  36  75 NE8       30.13R
MENOMINEE      CLOUDY    45  37  76 N9        30.11R
SAWYER-GWINN   CLOUDY    41  35  78 N8        30.13R
$$
MIZ001>003-009>011-084-180600-
WESTERN UPPER MICHIGAN

CITY           SKY/WX    TMP DP  RH WIND       PRES   REMARKS
IRON MOUNTAIN  CLOUDY    42  36  79 N10       30.12R
HOUGHTON       CLEAR     33  30  88 NE3       30.15S
COPPER HARBOR    N/A     44  33  65 VRB7      30.15F
IRONWOOD       CLOUDY    43  39  87 NE6       30.10S
$$

ABBREVIATIONS USED IN REMARKS
   TC - TEMPERATURE IN CELSIUS
  WCI - WIND CHILL INDEX
   HX - HEAT INDEX
  VSB - VISIBILITY




USA.gov is the U.S. government's official web portal to all federal, state and local government web resources and services.